Regional Weather Roundup
Issued by NWS

Home | Current Version | Previous Version | Text Only | Print | Product List | Glossary Off
Versions: 1 2 3 4 5 6 7 8 9 10 11 12 13 14 15 16 17 18 19 20 21 22 23 24 25 26 27 28 29 30 31 32 33 34 35 36 37 38 39 40 41 42 43 44 45 46 47 48 49 50

000
ASUS43 KIND 211009
RWRIN

WEATHER ROUNDUP FOR INDIANA
NATIONAL WEATHER SERVICE INDIANAPOLIS IN
600 AM EDT TUE APR 21 2015

NOTE: "FAIR" INDICATES FEW OR NO CLOUDS BELOW 12,000 FEET WITH NO
SIGNIFICANT WEATHER AND/OR OBSTRUCTIONS TO VISIBILITY.

* - STATION DOES NOT REPORT WEATHER SUCH AS PRECIPITATION OR FOG.

+ - STATION NOT QUALITY CONTROLLED BY THE NATIONAL WEATHER SERVICE.
    USE DATA WITH CAUTION...ESPECIALLY DEWPOINT AND RELATIVE
    HUMIDITY OBSERVATIONS.

INZ001>003-010>013-019-020-211100-
NORTHWEST INDIANA

CITY           SKY/WX    TMP DP  RH WIND       PRES   REMARKS
GARY /AIRPORT/ CLEAR     43  27  52 SW10      29.62S
KNOX *+        PTCLDY    37  27  65 SW13      29.63S
LA PORTE +     CLEAR     41  34  75 SW13      29.62S
MICHIGAN CITY+ CLEAR     39  28  65 SW13      29.61S
MONTICELLO +   CLEAR     38  33  81 SW8       29.68F
RENSSELAER +   CLEAR     37  36  93 SW14      29.68R
VALPARAISO     CLEAR     39  32  76 SW15      29.63S

$$

LMZ046-743>745-211100-
SOUTHERN LAKE MICHIGAN

STATION/POSITION TIME  TEMP    WIND        PRES    WAVE
                       AIR SEA DIR/SP/G            HT
                 (UTC) (F)     (DEG/KT/KT) (MB)    (FT)
BURNS HARBOR     1000   43     230/ 11/ 17 1003.7R
MICHIGAN CITY    1000   43     200/ 19/ 21   N/A
5NW MICH CITY    1000   43 45  250/ 17/ 23   N/A     4

$$

INZ004-005-014>016-021>024-211100-
NORTH CENTRAL INDIANA

CITY           SKY/WX    TMP DP  RH WIND       PRES   REMARKS
GOSHEN         CLEAR     40  34  79 SW14      29.61F
LOGANSPORT +   CLEAR     39  34  81 SW13      29.69S
PERU/GRISSOM   CLEAR     42  34  74 W15G23    29.68R
ROCHESTER +    CLEAR     41  36  81 SW10      29.66F
SOUTH BEND     PTCLDY    41  32  70 SW13      29.60F
WARSAW +       PTCLDY    39  34  81 SW8       29.64S

$$

INZ006>009-017-018-025>027-211100-
NORTHEAST INDIANA

CITY           SKY/WX    TMP DP  RH WIND       PRES   REMARKS
ANGOLA *+      CLOUDY    41  36  81 SW10      29.60F
AUBURN +       PTCLDY    41  34  75 SW8       29.64S
FORT WAYNE     PTCLDY    40  35  83 SW16      29.66S
HUNTINGTON +   CLEAR     41  31  67 W13G18    29.67S

$$

INZ028-029-035-036-043>045-051>053-211100-
WEST CENTRAL INDIANA

CITY           SKY/WX    TMP DP  RH WIND       PRES   REMARKS
CRAWFORDSVL +  CLEAR     39  28  64 SW10      29.73S
GREENCASTLE +  CLEAR     41  30  65 SW7       29.76R
LAFAYETTE      CLEAR     40  31  70 W9        29.71R
TERRE HAUTE    CLEAR     44  33  65 SW10      29.77S

$$

INZ030>032-037>040-046>048-054>057-064-065-211100-
CENTRAL INDIANA

CITY           SKY/WX    TMP DP  RH WIND       PRES   REMARKS
CP ATTERBURY + CLEAR     43  34  70 SW7       29.78S
FISHERS *+     CLEAR     41  36  81 SW14      29.74R
FRANKFORT +    CLEAR     40  34  77 SW10      29.72S
GREENWOOD *+   CLEAR     43  30  61 SW6       29.76S
INDIANAPOLIS   CLEAR     42  32  67 SW12      29.73S
-EAGLE CREEK   CLEAR     43  33  68 SW9       29.73S
KOKOMO *+      CLEAR     43  32  65 W18       29.70R
MARION +       CLEAR     41  32  70 W16       29.71R
MT COMFORT *+  CLEAR     43  28  56 SW10      29.74S
SHELBYVILLE    CLEAR     44  34  67 SW10      29.75S
ZIONSVILLE +   CLEAR     43  32  65 SW13G18   29.73S

$$

INZ033-034-041-042-049-050-058-059-211100-
EAST CENTRAL INDIANA

CITY           SKY/WX    TMP DP  RH WIND       PRES   REMARKS
MUNCIE         CLEAR     43  34  70 SW9G20    29.70S

$$

INZ060-061-067>069-081>083-085>088-211100-
SOUTHWEST INDIANA

CITY           SKY/WX    TMP DP  RH WIND       PRES   REMARKS
EVANSVILLE     CLEAR     43  35  73 SW5       29.86S
HUNTINGBURG *+ CLEAR     43  34  70 SW10      29.85S
WASHINGTON +   CLEAR     46  31  56 SW12      29.82R

$$

INZ062-063-066-070>080-084-089>092-211100-
SOUTH CENTRAL AND SOUTHEAST INDIANA

CITY           SKY/WX    TMP DP  RH WIND       PRES   REMARKS
BEDFORD +      CLEAR     45  32  61 SW6       29.80F
BLOOMINGTON    CLEAR     45  33  63 SW9       29.78S
MADISON *+     CLEAR     45  32  61 S8        29.83S
NORTH VERNON + CLEAR     39  37  93 S7        29.80

$$



USA.gov is the U.S. government's official web portal to all federal, state and local government web resources and services.